Wind_Speed
37 42 37 51 59 60 60 55 53 50 46 44 41 39 39 36 36 36 36 37 33 38
19 26 22 23 29 41 37 38 46 45 40 39 37 37 39 39 39 38 35 31 30 30
24 20 17 20 18 30 32 36 35 35 37 35 34 37 36 35 37 35 31 31 34 31
12 16 17 16 16 26 33 26 27 33 34 30 33 35 35 34 34 34 33 35 34 34
13 14 11 10 14 11 19 25 23 25 29 29 30 31 31 31 36 37 41 43 41 37
13 15 13 11 12 14 13 8 17 24 27 30 27 28 28 28 28 33 31 34 39 42
19 17 12 12 15 21 17 17 19 19 26 22 27 25 28 27 27 27 27 28 28 29
15 18 18 18 17 18 20 21 18 25 23 24 26 27 27 27 25 24 24 23 25 26
13 16 21 20 22 21 22 20 22 20 20 25 26 26 25 24 23 23 23 24 22 21
13 14 15 16 21 25 24 24 21 20 18 23 24 24 24 24 24 23 22 23 23 24
22 18 17 20 20 23 27 25 24 20 20 19 24 26 25 24 25 23 20 21 22 21
21 20 21 21 23 23 26 27 19 20 21 22 25 27 27 23 25 22 21 21 19 19
23 23 23 19 20 21 21 27 22 23 24 25 26 27 26 24 24 24 22 21 23 21
23 24 26 25 22 21 21 26 29 26 25 26 24 29 27 24 21 21 23 25 25 23
Wind_Direction
238 235 237 230 234 234 231 225 222 219 219 219 219 220 222 223 224 221 226 229 228 231
290 275 264 252 241 239 230 223 222 218 218 220 218 217 220 222 223 218 215 221 230 234
351 1 303 287 300 283 267 240 236 222 219 221 217 216 219 217 219 227 230 227 217 209
309 337 341 355 335 290 277 262 244 227 217 223 218 215 216 216 218 221 217 211 216 223
322 294 285 313 315 323 288 262 260 246 227 224 223 225 228 227 217 220 225 228 237 235
326 323 326 326 302 282 283 293 276 246 239 230 229 229 227 229 234 239 237 237 237 243
286 292 298 292 279 265 274 282 249 267 241 254 233 233 229 227 230 234 237 235 240 235
278 300 290 285 286 283 278 267 263 244 255 243 241 235 229 228 226 225 229 233 228 234
326 285 284 281 288 290 281 270 255 255 257 251 244 245 240 232 225 225 230 225 226 221
285 300 309 301 285 280 277 265 259 255 255 252 251 252 243 233 229 228 225 218 221 217
288 289 300 305 297 279 265 259 253 249 251 248 251 245 243 236 224 226 221 222 225 222
283 282 284 295 299 287 266 252 252 255 246 244 240 237 237 230 219 217 216 219 214 203
278 280 291 298 289 284 272 246 235 243 236 241 233 231 234 229 217 207 206 199 198 204
280 285 292 293 282 269 262 246 238 236 237 233 235 228 230 216 213 212 201 196 200 211
Height
1397 1396 1394 1369 1382 1390 1397 1396 1402 1409 1417 1425 1433 1443 1450 1456 1463 1468 1474 1480 1485 1489
1393 1396 1393 1395 1396 1385 1389 1385 1393 1402 1411 1419 1426 1435 1443 1448 1452 1458 1465 1470 1476 1482
1399 1398 1392 1398 1397 1398 1399 1396 1394 1401 1410 1415 1421 1428 1435 1441 1446 1452 1456 1462 1472 1471
1398 1396 1404 1399 1392 1398 1400 1399 1399 1404 1406 1410 1415 1422 1428 1434 1440 1444 1450 1457 1461 1466
1404 1404 1395 1387 1396 1401 1399 1400 1404 1407 1408 1409 1413 1417 1422 1427 1433 1438 1443 1448 1452 1460
1399 1401 1395 1387 1394 1400 1398 1395 1401 1404 1407 1408 1409 1414 1417 1422 1427 1431 1435 1440 1445 1451
1398 1397 1395 1394 1394 1396 1393 1393 1396 1400 1403 1406 1406 1410 1415 1417 1422 1428 1432 1437 1442 1447
1395 1395 1395 1391 1389 1389 1390 1393 1392 1394 1400 1399 1404 1406 1409 1414 1419 1422 1427 1433 1438 1443
1390 1389 1390 1388 1386 1386 1388 1388 1389 1390 1392 1397 1401 1405 1408 1413 1416 1420 1424 1431 1436 1439
1390 1389 1387 1385 1384 1383 1385 1387 1386 1387 1386 1395 1399 1401 1405 1410 1414 1417 1421 1426 1432 1434
1385 1383 1381 1382 1383 1382 1383 1382 1384 1385 1386 1390 1396 1399 1401 1407 1412 1416 1419 1424 1428 1432
1379 1379 1380 1379 1377 1376 1375 1378 1379 1380 1382 1385 1392 1395 1398 1402 1408 1413 1416 1422 1427 1431
1375 1374 1373 1372 1371 1370 1370 1373 1372 1374 1378 1383 1388 1389 1393 1397 1405 1409 1412 1419 1426 1431
1367 1366 1366 1364 1363 1363 1362 1364 1366 1370 1373 1378 1384 1388 1390 1393 1401 1406 1409 1415 1422 1430